Tracking 19489 objects as of 22-Jan-2019
HD Live streaming from Space Station
objects crossing your sky now

FENGYUN 1C DEB

Track FENGYUN 1C DEB now!
10-day predictions


NORAD ID: 31715
Int'l Code: 1999-025CDN
Perigee: 618.3 km
Apogee: 963.2 km
Inclination: 99.3 °
Period: 100.5 minutes
Semi major axis: 7161 km
RCS: 0.0108 m2 (small)
Launch date: May 10, 1999
Source: People's Republic of China (PRC)
Launch site: Taiyaun Space Center, China (TSC)

Note: This is SATELLITE DEBRIS
aabbcc
Your satellite tracking list
Your tracking list is empty




NASA's NSSDC Master Catalog

Two Line Element Set (TLE):
1 31715U 99025CDN 19021.10149421 +.00000113 +00000-0 +47247-4 0  9990
2 31715 099.2660 338.7208 0240768 260.5098 096.8800 14.32441946255505
Source of the keplerian elements: AFSPC